This demonstration page uses our WeatherBlox Daily Observations layout. Learn more.

Left ArrowRight Arrow

Hourly Observations for January 24, 2015

Temp ( °F °C ) Dew Point ( °F °C ) Humidity (%) Winds ( mph kmh ) Pressure ( in mb ) Visibility ( mi km ) Precip ( " mm )
12:52 am 00:52 Clear 32 0 29 -1.7 88 88 NW 10 17 29.98 1015 10 16 0.00 0.00
1:52 am 01:52 Clear 29 -1.7 28 -2.2 96 96 NW 7 11 29.97 1015 10 16 0.00 0.00
2:52 am 02:52 Clear 30 -1.1 27 -2.8 88 88 WNW 3 6 29.96 1015 10 16 0.00 0.00
3:52 am 03:52 Clear 27 -2.8 24 -4.4 89 89 Calm 29.96 1015 10 16 0.00 0.00
4:52 am 04:52 Clear 27 -2.8 24 -4.4 89 89 Calm 29.95 1014 10 16 0.00 0.00
5:52 am 05:52 Mostly Clear 26 -3.3 23 -5 88 88 SE 3 6 29.95 1014 10 16 0.00 0.00
6:52 am 06:52 Mostly Cloudy 28 -2.2 26 -3.3 92 92 Calm 29.94 1014 10 16 0.00 0.00
7:52 am 07:52 Partly Cloudy 29 -1.7 25 -3.9 85 85 Calm 29.93 1013 10 16 0.00 0.00
8:52 am 08:52 Mostly Sunny 34 1.1 29 -1.7 82 82 Calm 29.90 1013 10 16 0.00 0.00
9:52 am 09:52 Mostly Cloudy 40 4.4 30 -1.1 68 68 Calm 29.88 1012 10 16 0.00 0.00
10:52 am 10:52 Mostly Cloudy 46 7.8 31 -0.6 56 56 W 7 11 29.87 1012 10 16 0.00 0.00
11:52 am 11:52 Mostly Cloudy 49 9.4 30 -1.1 48 48 WSW 9 15 29.83 1010 10 16 0.00 0.00
12:52 pm 12:52 Mostly Cloudy 50 10 31 -0.6 48 48 SW 8 13 29.77 1008 10 16 0.00 0.00
1:52 pm 13:52 Cloudy 50 10 31 -0.6 48 48 SW 6 9 29.72 1007 10 16 0.00 0.00
2:52 pm 14:52 Mostly Cloudy 54 12.2 31 -0.6 42 42 SW 8 13 29.69 1006 10 16 0.00 0.00
3:52 pm 15:52 Cloudy 53 11.7 31 -0.6 43 43 WSW 8 13 29.69 1006 10 16 0.00 0.00
4:52 pm 16:52 Cloudy 52 11.1 30 -1.1 43 43 WSW 7 11 29.68 1005 10 16 0.00 0.00
5:52 pm 17:52 Cloudy 51 10.6 30 -1.1 44 44 SW 6 9 29.66 1004 10 16 0.00 0.00
6:52 pm 18:52 Cloudy 49 9.4 31 -0.6 50 50 SSW 3 6 29.65 1004 10 16 0.00 0.00
7:52 pm 19:52 Cloudy with Light Rain 49 9.4 38 3.3 66 66 W 14 22 29.66 1004 10 16 0.00 0.03
8:52 pm 20:52 Cloudy with Light Rain 45 7.2 38 3.3 77 77 SW 5 7 29.62 1003 10 16 0.02 0.51
9:52 pm 21:52 Cloudy 46 7.8 39 3.9 77 77 W 8 13 29.61 1003 10 16 0.00 0.03
10:52 pm 22:52 Cloudy 46 7.8 40 4.4 79 79 WNW 9 15 29.60 1002 10 16 0.00 0.03
11:52 pm 23:52 Cloudy 45 7.2 38 3.3 77 77 WNW 18 30 29.61 1003 10 16 0.00 0.00

Powered by AerisWeather